Location: Lake of the Woods (North-East)
(49.6672°N, 94.8656°W)
Time: 21:42:51
(UTC-05:00)

ISS - All Passes

Search period start: 22 June 2018 00:00
Search period end: 02 July 2018 00:00
Orbit: 402 x 408 km, 51.6° (Epoch: 23 June)

Date Brightness Start Highest point End Pass type
(mag) Time Alt. Az. Time Alt. Az. Time Alt. Az.
22 Jun - 09:38:38 10° SSW 09:41:25 25° SE 09:44:13 10° E daylight
22 Jun - 11:14:21 10° WSW 11:17:40 87° NNW 11:20:59 10° ENE daylight
22 Jun - 12:51:03 10° WNW 12:54:19 59° N 12:57:35 10° E daylight
22 Jun - 14:27:37 10° WNW 14:30:55 69° SSW 14:34:10 10° ESE daylight
22 Jun - 16:04:49 10° W 16:06:57 16° SW 16:09:05 10° S daylight
23 Jun - 08:47:26 10° S 08:49:34 16° SE 08:51:43 10° E daylight
23 Jun - 10:22:20 10° WSW 10:25:37 69° SSE 10:28:54 10° ENE daylight
23 Jun - 11:58:56 10° W 12:02:12 59° N 12:05:29 10° ENE daylight
23 Jun - 13:35:33 10° WNW 13:38:52 86° N 13:42:10 10° ESE daylight
23 Jun - 15:12:19 10° W 15:15:06 25° SW 15:17:53 10° SSE daylight
24 Jun - 09:30:27 10° SW 09:33:37 46° SSE 09:36:48 10° ENE daylight
24 Jun - 11:06:48 10° W 11:10:05 65° N 11:13:23 10° ENE daylight
24 Jun - 12:43:28 10° WNW 12:46:46 69° N 12:50:04 10° E daylight
24 Jun - 14:20:04 10° W 14:23:11 39° SSW 14:26:17 10° SE daylight
25 Jun - 08:38:44 10° SSW 08:41:40 30° SE 08:44:36 10° E daylight
25 Jun - 10:14:39 10° WSW 10:17:58 79° NNW 10:21:16 10° ENE daylight
25 Jun - 11:51:22 10° WNW 11:54:39 61° N 11:57:55 10° E daylight
25 Jun - 13:27:56 10° WNW 13:31:11 60° SSW 13:34:26 10° SE daylight
25 Jun - 15:05:26 10° WSW 15:07:09 14° SW 15:08:52 10° S daylight
26 Jun - 07:47:19 10° S 07:49:45 19° SE 07:52:12 10° E daylight
26 Jun - 09:22:34 10° WSW 09:25:52 78° SSE 09:29:11 10° ENE daylight
26 Jun - 10:59:13 10° W 11:02:29 58° N 11:05:46 10° E daylight
26 Jun - 12:35:49 10° WNW 12:39:07 85° SSW 12:42:26 10° ESE daylight
26 Jun - 14:12:42 10° W 14:15:18 22° SW 14:17:52 10° SSE daylight
27 Jun - 06:56:35 10° SSE 06:57:54 12° SE 06:59:13 10° ESE daylight
27 Jun - 08:30:35 10° SW 08:33:48 54° SSE 08:37:03 10° ENE daylight
27 Jun - 10:07:02 10° W 10:10:19 62° N 10:13:36 10° ENE daylight
27 Jun - 11:43:42 10° WNW 11:47:01 75° NNE 11:50:18 10° E daylight
27 Jun - 13:20:20 10° W 13:23:22 33° SSW 13:26:22 10° SSE daylight
28 Jun - 07:38:45 10° SW 07:41:48 35° SSE 07:44:51 10° E daylight
28 Jun - 09:14:52 10° W 09:18:10 73° NNW 09:21:29 10° ENE daylight
28 Jun - 10:51:34 10° WNW 10:54:51 63° N 10:58:08 10° E daylight
28 Jun - 12:28:07 10° WNW 12:31:21 51° SSW 12:34:33 10° SE daylight
28 Jun - 14:06:10 10° WSW 14:07:14 11° SW 14:08:17 10° SSW daylight
29 Jun - 06:47:10 10° SSW 06:49:50 23° SE 06:52:30 10° E daylight
29 Jun - 08:22:43 10° WSW 08:26:01 88° SSE 08:29:20 10° ENE daylight
29 Jun - 09:59:23 10° W 10:02:40 58° N 10:05:56 10° E daylight
29 Jun - 11:35:58 10° WNW 11:39:16 76° SSW 11:42:33 10° ESE daylight
29 Jun - 13:13:00 10° W 13:15:22 18° SW 13:17:42 10° S daylight
30 Jun - 05:56:03 10° S 05:57:55 14° SE 05:59:47 10° ESE daylight
30 Jun - 07:30:38 10° WSW 07:33:54 63° SSE 07:37:11 10° ENE daylight
30 Jun - 09:07:11 10° W 09:10:28 60° N 09:13:44 10° ENE daylight
30 Jun - 10:43:49 10° WNW 10:47:07 81° NNE 10:50:26 10° ESE daylight
30 Jun - 12:20:31 10° W 12:23:25 28° SW 12:26:18 10° SSE daylight
01 Jul - 06:38:42 10° SW 06:41:50 41° SSE 06:44:58 10° E daylight
01 Jul - 08:14:58 10° W 08:18:15 68° N 08:21:33 10° ENE daylight
01 Jul - 09:51:39 10° WNW 09:54:56 66° N 09:58:14 10° E daylight
01 Jul - 11:28:13 10° WNW 11:31:23 44° SSW 11:34:32 10° SE daylight
